Regional Weather Roundup
Issued by NWS Sioux Falls, SD

Home | Current Version | Previous Version | Text Only | Print | Product List | Glossary On
Versions: 1 2 3 4 5 6 7 8 9 10 11 12 13 14 15 16 17 18 19 20 21 22 23 24 25 26 27 28 29 30 31 32 33 34 35 36 37 38 39 40 41 42 43 44 45 46 47 48 49 50
000
ASUS43 KFSD 190410
RWRFSD

WEATHER ROUNDUP FOR SE SOUTH DAKOTA/SW MINNESOTA/NW IOWA
NATIONAL WEATHER SERVICE SIOUX FALLS SD
1100 PM CDT FRI APR 18 2014

NOTE: "FAIR" INDICATES FEW OR NO CLOUDS BELOW 12,000 FEET WITH NO
SIGNIFICANT WEATHER AND OR OBSTRUCTIONS TO VISIBILITY.


SDZ038>040-050-052>070-190500-
SOUTHEAST SOUTH DAKOTA

CITY           SKY/WX    TMP DP  RH WIND       PRES   REMARKS
CHAMBERLAIN      N/A     66  43  43 S25G31    29.72F
HURON          CLOUDY    61  41  47 S20G29    29.77F
MADISON        FAIR      55  37  50 S23G31    29.90F
MITCHELL       CLOUDY    61  42  49 S25G36    29.83F
SIOUX FALLS    CLOUDY    58  38  47 S25G32    29.94S
WINNER         FAIR      68  41  37 S33G46    29.71F
YANKTON        MOCLDY    61  37  41 S23       29.93S
$$

MNZ071-072-080-081-089-090-097-098-190500-
SOUTHWEST MINNESOTA

CITY           SKY/WX    TMP DP  RH WIND       PRES   REMARKS
FAIRMONT       CLOUDY    48  30  49 SE18      30.11F
JACKSON        CLOUDY    50  32  50 SE16      30.07S
LUVERNE        CLOUDY    55  34  44 S21G28    29.99S
MARSHALL       CLOUDY    50  34  53 SE16      30.00S
MONTEVIDEO     CLOUDY    45  37  76 S23       30.02F
PIPESTONE      CLOUDY    54  34  47 S18G24    29.97S
REDWOOD FALLS  CLOUDY    49  34  56 SE15G24   30.06S
TRACY          CLOUDY    50  34  54 SE17      30.02R
WINDOM         CLOUDY    52  30  43 SE18      30.05F
WORTHINGTON    CLOUDY    52  28  40 SE17      30.04S
$$

IAZ001>003-012>014-020>022-031-032-NEZ013-014-SDZ071-190500-
NORTHWEST IOWA

CITY           SKY/WX    TMP DP  RH WIND       PRES   REMARKS
CHEROKEE       CLOUDY    55  34  45 SE17G25   30.05F
DENISON        CLOUDY    55  36  47 S16G25    30.08F
ESTHERVILLE    CLOUDY    49  32  52 SE21      30.08F
LE MARS        CLOUDY    57  37  47 SE18G26   30.01S
ORANGE CITY    CLOUDY    57  34  41 SE15G22   30.01F
SHELDON        CLOUDY    55  34  44 SE23G29   30.01F
SIOUX CITY     PTCLDY    57  39  51 SE15      30.02S
SPENCER        CLOUDY    52  33  48 SE18      30.07F
STORM LAKE     CLOUDY    52  34  50 SE15      30.08F
$$

ABBREVIATIONS USED IN REMARKS
   TC - TEMPERATURE IN CELSIUS
  WCI - WIND CHILL INDEX
   HX - HEAT INDEX
  VSB - VISIBILITY




USA.gov is the U.S. government's official web portal to all federal, state and local government web resources and services.